When you browse on this site, cookies collect data to enhance your experience and personalize the content and advertising you see.
Visit our Privacy Policy to learn more. By continuing to use the site, you agree to this use of cookies and data.
  • In Spain
  • List of Countries
  • For 7 days
  • Water Temperature
  • Weather Map
  • Weather Widgets
  • user-avatar
    Login

    Hourly Weather Lubango

    Today, 8 December, Sunday

    Time Temperature Precipitation Wind Pressure Humidity
    00:00 +14°C° 0 mm 1 mps 607 mmHg 92%
    01:00 +14°C° 0 mm 2 mps 607 mmHg 89%
    02:00 +14°C° 0 mm 1 mps 606 mmHg 90%
    03:00 +14°C° 0 mm 1 mps 606 mmHg 90%
    04:00 +13°C° 0 mm 1 mps 606 mmHg 91%
    05:00 +14°C° 0 mm 1 mps 607 mmHg 86%
    06:00 +15°C° 0 mm 1 mps 607 mmHg 82%
    07:00 +16°C° 0 mm 1 mps 608 mmHg 77%
    08:00 +19°C° 0 mm 1 mps 609 mmHg 69%
    09:00 +21°C° 0 mm 1 mps 609 mmHg 62%
    10:00 +21°C° 0 mm 2 mps 610 mmHg 54%
    11:00 +23°C° 0.1 mm 2 mps 609 mmHg 54%
    12:00 +23°C° 0.1 mm 2 mps 609 mmHg 53%
    13:00 +24°C° 0.1 mm 2 mps 609 mmHg 53%
    14:00 +23°C° 0.1 mm 2 mps 608 mmHg 53%
    15:00 +23°C° 0.1 mm 2 mps 607 mmHg 53%
    16:00 +22°C° 0.1 mm 3 mps 607 mmHg 54%
    17:00 +20°C° 0 mm 2 mps 607 mmHg 57%
    18:00 +18°C° 0 mm 2 mps 606 mmHg 61%
    19:00 +16°C° 0 mm 1 mps 606 mmHg 65%
    20:00 +16°C° 0 mm 1 mps 606 mmHg 64%
    21:00 +15°C° 0 mm 1 mps 606 mmHg 62%
    22:00 +15°C° 0 mm 1 mps 606 mmHg 61%
    23:00 +14°C° 0 mm 1 mps 606 mmHg 61%

    Tomorrow, 9 December, Monday

    Time Temperature Precipitation Wind Pressure Humidity
    00:00 +14°C° 0 mm 1 mps 606 mmHg 61%
    01:00 +13°C° 0 mm 1 mps 605 mmHg 60%
    02:00 +13°C° 0 mm 1 mps 605 mmHg 59%
    03:00 +13°C° 0 mm 1 mps 605 mmHg 58%
    04:00 +12°C° 0 mm 1 mps 605 mmHg 56%
    05:00 +13°C° 0 mm 1 mps 606 mmHg 55%
    06:00 +14°C° 0 mm 1 mps 607 mmHg 54%
    07:00 +15°C° 0 mm 1 mps 607 mmHg 52%
    08:00 +18°C° 0 mm 1 mps 608 mmHg 46%
    09:00 +19°C° 0 mm 2 mps 609 mmHg 40%
    10:00 +21°C° 0 mm 2 mps 610 mmHg 34%
    11:00 +22°C° 0 mm 3 mps 610 mmHg 33%
    12:00 +22°C° 0 mm 3 mps 609 mmHg 31%
    13:00 +24°C° 0 mm 3 mps 609 mmHg 30%
    14:00 +24°C° 0 mm 3 mps 609 mmHg 31%
    15:00 +22°C° 0 mm 4 mps 608 mmHg 32%
    16:00 +22°C° 0 mm 4 mps 607 mmHg 34%
    17:00 +20°C° 0 mm 3 mps 607 mmHg 44%
    18:00 +17°C° 0 mm 2 mps 606 mmHg 55%
    19:00 +15°C° 0 mm 1 mps 606 mmHg 65%
    20:00 +14°C° 0 mm 1 mps 606 mmHg 66%
    21:00 +14°C° 0 mm 1 mps 606 mmHg 66%
    22:00 +13°C° 0 mm 1 mps 606 mmHg 66%
    23:00 +13°C° 0 mm 1 mps 606 mmHg 66%

    Day after tomorrow, 10 December, Tuesday

    Time Temperature Precipitation Wind Pressure Humidity
    00:00 +12°C° 0 mm 1 mps 606 mmHg 67%
    01:00 +12°C° 0 mm 1 mps 606 mmHg 67%
    02:00 +12°C° 0 mm 1 mps 605 mmHg 67%
    03:00 +11°C° 0 mm 1 mps 605 mmHg 68%
    04:00 +11°C° 0 mm 1 mps 605 mmHg 69%
    05:00 +12°C° 0 mm 1 mps 606 mmHg 67%
    06:00 +13°C° 0 mm 1 mps 606 mmHg 65%
    07:00 +14°C° 0 mm 1 mps 607 mmHg 63%
    08:00 +16°C° 0 mm 1 mps 608 mmHg 54%
    09:00 +18°C° 0 mm 2 mps 609 mmHg 46%
    10:00 +21°C° 0 mm 2 mps 610 mmHg 38%
    11:00 +21°C° 0 mm 3 mps 609 mmHg 37%
    12:00 +22°C° 0 mm 3 mps 609 mmHg 36%
    13:00 +24°C° 0 mm 3 mps 609 mmHg 35%
    14:00 +24°C° 0 mm 3 mps 609 mmHg 37%
    15:00 +22°C° 0 mm 3 mps 608 mmHg 38%
    16:00 +22°C° 0 mm 3 mps 608 mmHg 40%
    17:00 +20°C° 0 mm 3 mps 607 mmHg 52%
    18:00 +17°C° 0 mm 2 mps 607 mmHg 64%
    19:00 +15°C° 0 mm 1 mps 606 mmHg 75%
    20:00 +14°C° 0 mm 1 mps 606 mmHg 79%
    21:00 +13°C° 0 mm 1 mps 606 mmHg 83%
    22:00 +12°C° 0 mm 0 mps 607 mmHg 87%
    23:00 +13°C° 0 mm 1 mps 606 mmHg 85%

    11 December, Wednesday

    Time Temperature Precipitation Wind Pressure Humidity
    00:00 +12°C° 0 mm 1 mps 606 mmHg 84%
    01:00 +12°C° 0 mm 1 mps 606 mmHg 82%
    02:00 +12°C° 0 mm 1 mps 606 mmHg 77%
    03:00 +12°C° 0 mm 1 mps 606 mmHg 72%
    04:00 +12°C° 0 mm 1 mps 605 mmHg 67%
    05:00 +13°C° 0 mm 1 mps 606 mmHg 62%
    06:00 +14°C° 0 mm 1 mps 607 mmHg 57%
    07:00 +16°C° 0 mm 1 mps 608 mmHg 52%
    08:00 +19°C° 0 mm 1 mps 609 mmHg 44%
    09:00 +20°C° 0 mm 2 mps 610 mmHg 36%
    10:00 +24°C° 0 mm 2 mps 610 mmHg 28%
    11:00 +24°C° 0 mm 2 mps 610 mmHg 28%
    12:00 +25°C° 0 mm 3 mps 610 mmHg 27%
    13:00 +26°C° 0 mm 3 mps 610 mmHg 27%
    14:00 +25°C° 0 mm 3 mps 609 mmHg 29%
    15:00 +25°C° 0 mm 3 mps 609 mmHg 31%
    16:00 +24°C° 0 mm 3 mps 608 mmHg 32%
    17:00 +21°C° 0 mm 3 mps 608 mmHg 44%
    18:00 +18°C° 0 mm 2 mps 607 mmHg 56%
    19:00 +16°C° 0 mm 1 mps 607 mmHg 68%
    20:00 +15°C° 0 mm 1 mps 607 mmHg 68%
    21:00 +15°C° 0 mm 1 mps 607 mmHg 69%
    22:00 +14°C° 0 mm 1 mps 607 mmHg 69%
    23:00 +14°C° 0 mm 1 mps 607 mmHg 65%

    12 December, Thursday

    Time Temperature Precipitation Wind Pressure Humidity
    00:00 +14°C° 0 mm 1 mps 607 mmHg 61%
    01:00 +14°C° 0 mm 1 mps 607 mmHg 58%
    02:00 +13°C° 0 mm 1 mps 607 mmHg 58%
    03:00 +13°C° 0 mm 1 mps 606 mmHg 58%
    04:00 +13°C° 0 mm 1 mps 606 mmHg 58%
    05:00 +14°C° 0 mm 1 mps 607 mmHg 54%
    06:00 +15°C° 0 mm 0 mps 608 mmHg 51%
    07:00 +16°C° 0 mm 0 mps 609 mmHg 47%
    08:00 +20°C° 0 mm 1 mps 609 mmHg 41%
    09:00 +23°C° 0 mm 1 mps 610 mmHg 34%
    10:00 +25°C° 0 mm 1 mps 611 mmHg 27%
    11:00 +26°C° 0 mm 2 mps 611 mmHg 27%
    12:00 +26°C° 0 mm 2 mps 611 mmHg 27%
    13:00 +27°C° 0 mm 2 mps 610 mmHg 26%
    14:00 +27°C° 0 mm 3 mps 610 mmHg 28%
    15:00 +26°C° 0 mm 3 mps 609 mmHg 30%
    16:00 +26°C° 0 mm 3 mps 609 mmHg 31%
    17:00 +23°C° 0 mm 2 mps 608 mmHg 42%
    18:00 +19°C° 0 mm 2 mps 607 mmHg 54%
    19:00 +17°C° 0 mm 2 mps 607 mmHg 65%
    20:00 +16°C° 0 mm 1 mps 607 mmHg 64%
    21:00 +16°C° 0 mm 1 mps 608 mmHg 63%
    22:00 +16°C° 0 mm 1 mps 608 mmHg 62%
    23:00 +16°C° 0 mm 1 mps 608 mmHg 60%

    13 December, Friday

    Time Temperature Precipitation Wind Pressure Humidity
    00:00 +15°C° 0 mm 1 mps 608 mmHg 59%
    01:00 +15°C° 0 mm 1 mps 607 mmHg 58%
    02:00 +15°C° 0 mm 1 mps 607 mmHg 56%
    03:00 +15°C° 0 mm 1 mps 607 mmHg 53%
    04:00 +15°C° 0 mm 1 mps 607 mmHg 50%
    05:00 +16°C° 0 mm 1 mps 608 mmHg 50%
    06:00 +18°C° 0 mm 1 mps 608 mmHg 50%
    07:00 +19°C° 0 mm 1 mps 609 mmHg 49%
    08:00 +21°C° 0 mm 1 mps 610 mmHg 44%
    09:00 +24°C° 0 mm 1 mps 611 mmHg 39%
    10:00 +26°C° 0 mm 1 mps 611 mmHg 34%
    11:00 +27°C° 0 mm 2 mps 611 mmHg 32%
    12:00 +28°C° 0 mm 2 mps 611 mmHg 30%
    13:00 +29°C° 0 mm 2 mps 610 mmHg 28%
    14:00 +28°C° 0 mm 2 mps 610 mmHg 29%
    15:00 +28°C° 0 mm 2 mps 609 mmHg 30%
    16:00 +27°C° 0 mm 1 mps 609 mmHg 31%
    17:00 +25°C° 0 mm 2 mps 608 mmHg 39%
    18:00 +21°C° 0 mm 2 mps 607 mmHg 47%
    19:00 +18°C° 0 mm 2 mps 607 mmHg 55%
    20:00 +18°C° 0 mm 2 mps 607 mmHg 56%
    21:00 +18°C° 0 mm 1 mps 608 mmHg 57%
    22:00 +16°C° 0 mm 1 mps 608 mmHg 57%
    23:00 +16°C° 0 mm 1 mps 608 mmHg 54%
    Show more